When you browse on this site, cookies collect data to enhance your experience and personalize the content and advertising you see.
Visit our Privacy Policy to learn more. By continuing to use the site, you agree to this use of cookies and data.
  • In Austria
  • List of Countries
  • For 7 days
  • Water Temperature
  • Satellite Maps
  • Weather Map
  • News
  • Weather Widgets
  • user-avatar
    Login

    Hourly Weather Harare

    Today, 21 November, Wednesday

    Time Temperature Precipitation Wind Pressure Humidity
    00:00 +20°C° 0 mm 2 mps 638 mmHg 40%
    01:00 +20°C° 0 mm 2 mps 637 mmHg 42%
    02:00 +19°C° 0 mm 2 mps 637 mmHg 45%
    03:00 +19°C° 0 mm 2 mps 637 mmHg 49%
    04:00 +18°C° 0 mm 2 mps 637 mmHg 53%
    05:00 +18°C° 0 mm 2 mps 637 mmHg 58%
    06:00 +20°C° 0 mm 2 mps 638 mmHg 53%
    07:00 +24°C° 0 mm 3 mps 639 mmHg 49%
    08:00 +26°C° 0 mm 3 mps 640 mmHg 45%
    09:00 +29°C° 0 mm 3 mps 641 mmHg 37%
    10:00 +32°C° 0 mm 2 mps 641 mmHg 29%
    11:00 +35°C° 0 mm 1 mps 642 mmHg 21%
    12:00 +36°C° 0 mm 1 mps 641 mmHg 19%
    13:00 +37°C° 0 mm 1 mps 641 mmHg 17%
    14:00 +39°C° 0 mm 1 mps 640 mmHg 15%
    15:00 +37°C° 0 mm 1 mps 639 mmHg 16%
    16:00 +35°C° 0 mm 1 mps 638 mmHg 18%
    17:00 +33°C° 0 mm 1 mps 637 mmHg 19%
    18:00 +31°C° 0 mm 1 mps 637 mmHg 21%
    19:00 +30°C° 0 mm 1 mps 638 mmHg 23%
    20:00 +29°C° 0 mm 1 mps 638 mmHg 24%
    21:00 +28°C° 0 mm 1 mps 638 mmHg 26%
    22:00 +27°C° 0 mm 2 mps 638 mmHg 28%
    23:00 +26°C° 0 mm 2 mps 638 mmHg 30%

    Tomorrow, 22 November, Thursday

    Time Temperature Precipitation Wind Pressure Humidity
    00:00 +25°C° 0 mm 2 mps 638 mmHg 32%
    01:00 +25°C° 0 mm 2 mps 637 mmHg 34%
    02:00 +24°C° 0 mm 2 mps 637 mmHg 36%
    03:00 +23°C° 0 mm 2 mps 637 mmHg 38%
    04:00 +23°C° 0 mm 2 mps 637 mmHg 41%
    05:00 +22°C° 0 mm 1 mps 637 mmHg 43%
    06:00 +24°C° 0 mm 2 mps 638 mmHg 41%
    07:00 +26°C° 0 mm 3 mps 639 mmHg 39%
    08:00 +29°C° 0 mm 3 mps 640 mmHg 37%
    09:00 +31°C° 0 mm 3 mps 640 mmHg 33%
    10:00 +34°C° 0 mm 3 mps 640 mmHg 28%
    11:00 +36°C° 0 mm 2 mps 640 mmHg 23%
    12:00 +35°C° 0 mm 2 mps 640 mmHg 25%
    13:00 +34°C° 0 mm 2 mps 639 mmHg 27%
    14:00 +32°C° 0 mm 2 mps 638 mmHg 29%
    15:00 +30°C° 1.6 mm 3 mps 637 mmHg 37%
    16:00 +28°C° 1.6 mm 4 mps 637 mmHg 44%
    17:00 +26°C° 1.6 mm 5 mps 636 mmHg 52%
    18:00 +25°C° 3 mm 4 mps 637 mmHg 58%
    19:00 +22°C° 3 mm 3 mps 637 mmHg 63%
    20:00 +21°C° 3 mm 3 mps 637 mmHg 68%
    21:00 +21°C° 0.9 mm 3 mps 638 mmHg 71%
    22:00 +20°C° 0.9 mm 3 mps 638 mmHg 74%
    23:00 +20°C° 0.9 mm 2 mps 639 mmHg 77%

    Day after tomorrow, 23 November, Friday

    Time Temperature Precipitation Wind Pressure Humidity
    00:00 +20°C° 0.5 mm 2 mps 639 mmHg 78%
    01:00 +19°C° 0.5 mm 2 mps 638 mmHg 79%
    02:00 +20°C° 0.5 mm 1 mps 638 mmHg 80%
    03:00 +20°C° 1.3 mm 1 mps 638 mmHg 81%
    04:00 +20°C° 1.3 mm 1 mps 638 mmHg 83%
    05:00 +20°C° 1.3 mm 1 mps 639 mmHg 84%
    06:00 +20°C° 1.6 mm 1 mps 639 mmHg 83%
    07:00 +21°C° 1.6 mm 1 mps 640 mmHg 81%
    08:00 +21°C° 1.6 mm 1 mps 640 mmHg 80%
    09:00 +22°C° 1.2 mm 1 mps 640 mmHg 75%
    10:00 +23°C° 1.2 mm 1 mps 641 mmHg 70%
    11:00 +24°C° 1.2 mm 1 mps 641 mmHg 65%
    12:00 +25°C° 0.2 mm 1 mps 640 mmHg 61%
    13:00 +25°C° 0.2 mm 2 mps 640 mmHg 58%
    14:00 +26°C° 0.2 mm 2 mps 639 mmHg 55%
    15:00 +26°C° 0 mm 2 mps 639 mmHg 54%
    16:00 +26°C° 0 mm 2 mps 639 mmHg 54%
    17:00 +26°C° 0 mm 2 mps 638 mmHg 53%
    18:00 +24°C° 0 mm 2 mps 638 mmHg 60%
    19:00 +22°C° 0 mm 3 mps 638 mmHg 66%
    20:00 +20°C° 0 mm 3 mps 639 mmHg 73%
    21:00 +20°C° 0 mm 2 mps 639 mmHg 75%
    22:00 +19°C° 0 mm 2 mps 639 mmHg 77%
    23:00 +19°C° 0 mm 2 mps 639 mmHg 78%

    24 November, Saturday

    Time Temperature Precipitation Wind Pressure Humidity
    00:00 +19°C° 0.1 mm 2 mps 639 mmHg 80%
    01:00 +19°C° 0.1 mm 3 mps 639 mmHg 82%
    02:00 +18°C° 0.1 mm 3 mps 638 mmHg 84%
    03:00 +18°C° 0.3 mm 3 mps 639 mmHg 85%
    04:00 +18°C° 0.3 mm 3 mps 639 mmHg 87%
    05:00 +18°C° 0.3 mm 3 mps 639 mmHg 88%
    06:00 +19°C° 0 mm 3 mps 639 mmHg 82%
    07:00 +20°C° 0 mm 4 mps 640 mmHg 76%
    08:00 +21°C° 0 mm 5 mps 641 mmHg 71%
    09:00 +23°C° 0.3 mm 5 mps 641 mmHg 64%
    10:00 +25°C° 0.3 mm 5 mps 641 mmHg 57%
    11:00 +27°C° 0.3 mm 5 mps 641 mmHg 51%
    12:00 +27°C° 0.4 mm 4 mps 641 mmHg 49%
    13:00 +28°C° 0.4 mm 4 mps 640 mmHg 47%
    14:00 +28°C° 0.4 mm 3 mps 640 mmHg 46%
    15:00 +27°C° 1 mm 3 mps 639 mmHg 52%
    16:00 +26°C° 1 mm 3 mps 639 mmHg 57%
    17:00 +24°C° 1 mm 3 mps 639 mmHg 63%
    18:00 +23°C° 1.8 mm 2 mps 639 mmHg 69%
    19:00 +21°C° 1.8 mm 2 mps 639 mmHg 75%
    20:00 +20°C° 1.8 mm 2 mps 639 mmHg 80%
    21:00 +20°C° 1.6 mm 2 mps 639 mmHg 82%
    22:00 +20°C° 1.6 mm 2 mps 639 mmHg 83%
    23:00 +19°C° 1.6 mm 2 mps 640 mmHg 84%

    25 November, Sunday

    Time Temperature Precipitation Wind Pressure Humidity
    00:00 +19°C° 1.7 mm 2 mps 639 mmHg 85%
    01:00 +19°C° 1.7 mm 2 mps 639 mmHg 85%
    02:00 +19°C° 1.7 mm 2 mps 638 mmHg 85%
    03:00 +19°C° 0.8 mm 2 mps 638 mmHg 86%
    04:00 +18°C° 0.8 mm 2 mps 639 mmHg 87%
    05:00 +18°C° 0.8 mm 2 mps 639 mmHg 87%
    06:00 +19°C° 0.4 mm 2 mps 639 mmHg 85%
    07:00 +19°C° 0.4 mm 2 mps 640 mmHg 82%
    08:00 +20°C° 0.4 mm 3 mps 640 mmHg 80%
    09:00 +21°C° 0.6 mm 3 mps 640 mmHg 75%
    10:00 +22°C° 0.6 mm 3 mps 640 mmHg 70%
    11:00 +24°C° 0.6 mm 3 mps 640 mmHg 66%
    12:00 +24°C° 0.5 mm 3 mps 640 mmHg 64%
    13:00 +24°C° 0.5 mm 3 mps 639 mmHg 63%
    14:00 +25°C° 0.5 mm 3 mps 639 mmHg 61%
    15:00 +24°C° 0.6 mm 3 mps 639 mmHg 65%
    16:00 +23°C° 0.6 mm 2 mps 638 mmHg 69%
    17:00 +23°C° 0.6 mm 2 mps 638 mmHg 72%
    18:00 +21°C° 0.2 mm 2 mps 638 mmHg 77%
    19:00 +20°C° 0.2 mm 2 mps 638 mmHg 81%
    20:00 +20°C° 0.2 mm 1 mps 638 mmHg 86%
    21:00 +19°C° 0 mm 1 mps 638 mmHg 87%
    22:00 +19°C° 0 mm 1 mps 638 mmHg 88%
    23:00 +19°C° 0 mm 1 mps 638 mmHg 89%

    26 November, Monday

    Time Temperature Precipitation Wind Pressure Humidity
    00:00 +19°C° 0 mm 1 mps 638 mmHg 90%
    01:00 +17°C° 0 mm 2 mps 637 mmHg 91%
    02:00 +17°C° 0 mm 2 mps 637 mmHg 91%
    03:00 +17°C° 0 mm 2 mps 637 mmHg 93%
    04:00 +18°C° 0 mm 1 mps 637 mmHg 94%
    05:00 +16°C° 0 mm 1 mps 637 mmHg 96%
    06:00 +19°C° 0 mm 1 mps 638 mmHg 87%
    07:00 +20°C° 0 mm 2 mps 639 mmHg 78%
    08:00 +23°C° 0 mm 2 mps 640 mmHg 69%
    09:00 +25°C° 0.4 mm 2 mps 640 mmHg 61%
    10:00 +27°C° 0.4 mm 2 mps 640 mmHg 53%
    11:00 +29°C° 0.4 mm 2 mps 640 mmHg 45%
    12:00 +28°C° 0.3 mm 2 mps 639 mmHg 47%
    13:00 +28°C° 0.3 mm 2 mps 638 mmHg 48%
    14:00 +28°C° 0.3 mm 2 mps 638 mmHg 49%
    15:00 +27°C° 0.3 mm 3 mps 637 mmHg 52%
    16:00 +26°C° 0.3 mm 3 mps 637 mmHg 55%
    17:00 +26°C° 0.3 mm 3 mps 637 mmHg 59%
    18:00 +24°C° 0.4 mm 2 mps 637 mmHg 66%
    19:00 +23°C° 0.4 mm 2 mps 637 mmHg 73%
    20:00 +20°C° 0.4 mm 2 mps 637 mmHg 80%
    21:00 +20°C° 0 mm 2 mps 637 mmHg 81%
    22:00 +20°C° 0 mm 2 mps 637 mmHg 82%
    23:00 +19°C° 0 mm 2 mps 637 mmHg 83%
    Show more